Location: ??????
(41.3164°N, 22.6615°E)
Time: 23:35:49
(UTC+00:00)

Spot 2 - Pass Details

Date: 16 October 2021
Orbit: 570 x 772 km, 98.7° (Epoch: 26 November)

Event Time Altitude Azimuth Distance (km) Brightness Sun altitude
Rises 16:32:18 0° 146° (SE) 2,761 7.1 -9.3°
Reaches altitude 10° 16:34:31 10° 138° (SE) 1,874 6.2 -9.7°
Maximum altitude 16:38:15 38° 70° (ENE) 899 4.4 -10.4°
Drops below altitude 10° 16:42:07 10° 2° (N) 1,938 6.6 -11.1°
Sets 16:44:26 0° 355° (N) 2,871 7.5 -11.6°
